[ ตารางข้อมูล ] [ Min-Max ] [ วันนี้4 ] [ วันนี้2 ] [ เทียบ3วัน A ] [ เทียบ4วัน B ]   

วันนี้2   [ ◀ ช่วงเก่ากว่า ] [ ช่วงที่ 328 ] [ ช่วงใหม่กว่า ▶ ] [ ล่าสุด ]    [ 3 ชั่วโมง ] [ 6 ชั่วโมง ] [ 12 ชั่วโมง ] [ 24 ชั่วโมง ]   วันนี้2

อุณภูมิตู้ Knockdown4529  ราย 3 ชั่วโมง  ที่วัดได้ ในช่วงวันเวลา 30/03/2026 (07:47) ถึง 30/03/2026 (10:47) 
ความชื้นในตู้ Knockdown4529  ราย 3 ชั่วโมง  ที่วัดได้ ในช่วงวันเวลา 30/03/2026 (07:47) ถึง 30/03/2026 (10:47) 

 
DS18B20SHTC3 
IDDate d/m/Y & Timedata1
สูง
data2
ต่ำ
data3
นอก
temp
pcb
hum
pcb
Time
 7171  30/03/2026 10:45:21  31.4  30.2  32.5  30.8  67.9  10:45 
 7170  30/03/2026 10:40:39  31.4  30.1  32.5  30.8  68.0  10:40 
 7169  30/03/2026 10:35:55  31.3  30.1  32.6  30.7  68.0  10:35 
 7168  30/03/2026 10:31:13  31.2  30.0  32.6  30.5  68.1  10:31 
 7167  30/03/2026 10:26:31  31.1  29.9  32.8  30.4  68.2  10:26 
 7166  30/03/2026 10:21:49  31.0  29.8  32.6  30.2  68.3  10:21 
 7165  30/03/2026 10:17:08  30.9  29.8  32.0  30.2  68.4  10:17 
 7164  30/03/2026 10:12:26  30.8  29.7  32.2  30.2  68.6  10:12 
 7163  30/03/2026 10:07:44  30.7  29.6  32.2  30.1  68.6  10:07 
 7162  30/03/2026 10:03:02  30.6  29.5  32.0  29.9  68.7  10:03 
 7161  30/03/2026 09:58:21  30.4  29.4  31.8  29.9  68.8  09:58 
 7160  30/03/2026 09:53:39  30.3  29.4  31.9  29.7  68.8  09:53 
 7159  30/03/2026 09:48:57  30.2  29.2  31.9  29.6  69.0  09:48 
 7158  30/03/2026 09:44:15  30.1  29.2  31.6  29.5  69.2  09:44 
 7157  30/03/2026 09:39:32  30.0  29.1  31.2  29.6  69.5  09:39 
 7156  30/03/2026 09:34:50  29.9  29.0  31.2  29.6  69.5  09:34 
 7155  30/03/2026 09:30:08  29.8  28.9  31.4  29.4  69.5  09:30 
 7154  30/03/2026 09:25:26  29.7  28.9  31.4  29.2  69.6  09:25 
 7153  30/03/2026 09:20:44  29.6  28.8  30.9  29.1  69.7  09:20 
 7152  30/03/2026 09:16:01  29.5  28.7  30.7  29.0  69.8  09:16 
 7151  30/03/2026 09:11:19  29.4  28.6  30.7  29.0  70.0  09:11 
 7150  30/03/2026 09:06:37  29.3  28.6  30.3  28.6  70.0  09:06 
 7149  30/03/2026 09:01:55  29.2  28.5  30.3  28.6  70.2  09:01 
 7148  30/03/2026 08:57:13  29.1  28.4  30.0  28.6  70.2  08:57 

Data every 5 minute.


ใช้เวลาประมวลผล 0.00191 วินาที